Location: Unspecified
(48.8656°N, 0.0000°E)
Time: 15:56:11
(UTC+00:00)

Vanguard 1 - Pass Details

Date: 21 June 2019
Orbit: 653 x 3830 km, 34.3° (Epoch: 17 July)

Event Time Altitude Azimuth Distance (km) Brightness Sun altitude
Rises 05:28:05 0° 254° (WSW) 6,519 13.6 12.2°
Reaches altitude 10° 05:33:34 10° 247° (WSW) 4,951 13.1 13.0°
Maximum altitude 05:44:10 33° 190° (S) 2,387 11.9 14.7°
Drops below altitude 10° 05:50:37 10° 129° (SE) 2,965 13.1 15.7°
Sets 05:53:03 0° 119° (ESE) 3,652 13.7 16.1°
